Regional Weather Roundup
Issued by NWS

Home | Current Version | Previous Version | Text Only | Print | Product List | Glossary Off
Versions: 1 2 3 4 5 6 7 8 9 10 11 12 13 14 15 16 17 18 19 20 21 22 23 24 25 26 27 28 29 30 31 32 33 34 35 36 37 38 39 40 41 42 43 44 45 46 47 48 49 50

000
ASUS43 KLSX 011107
RWRMO

WEATHER SUMMARY FOR MISSOURI
NATIONAL WEATHER SERVICE SPRINGFIELD MO
600 AM CDT SUN MAY 01 2016

NOTE: "FAIR" INDICATES FEW OR NO CLOUDS BELOW 12,000 FEET WITH NO
       SIGNIFICANT WEATHER AND/OR OBSTRUCTIONS TO VISIBILITY.
       CURRENT SKY AND/OR WEATHER CONDITIONS ARE NOT AVAILABLE FOR
       CHILLICOTHE AND FARMINGTON.

MOZ001>031-035>038-043-044-053-054-011200-
...NORTHERN AND WESTERN MISSOURI...

CITY           SKY/WX    TMP DP  RH WIND       PRES   REMARKS
KANSAS CTY INT CLOUDY    50  47  89 SW5       29.90R
KANSAS C DTWN  CLOUDY    53  47  79 W6        29.90R
LEE`S SUMMIT   CLOUDY    50  47  89 SW5       29.90S
ST JOSEPH      CLOUDY    53  49  86 W6        29.89S
CHILLICOTHE      N/A     54  52  93 NE7       29.90S
KIRKSVILLE     CLOUDY    48  46  93 NE9       29.91S FOG

$$
MOZ066>068-077>081-088>096-101>105-011200-
...SOUTHWEST MISSOURI...

CITY           SKY/WX    TMP DP  RH WIND       PRES   REMARKS
SPRINGFIELD    CLEAR     50  44  80 CALM      29.92S
JOPLIN         PTCLDY    46  44  93 CALM      29.93S

$$
MOZ032>034-039>042-045>050-055>058-069>072-011200-
...CENTRAL MISSOURI...

CITY           SKY/WX    TMP DP  RH WIND       PRES   REMARKS
COLUMBIA       CLOUDY    55  53  93 W6        29.89R
JEFFERSON CITY MOCLDY    55  53  93 NW5       29.89R
ROLLA          PTCLDY    53  50  89 W9        29.88R
SEDALIA        CLEAR     50  47  89 S5        29.90S
WHITEMAN AFB   CLEAR     49  49  99 W7        29.88S
WARRENSBURG    PTCLDY    48  45  87 SW6       29.90S
OSAGE BEACH    CLEAR     52  43  71 SW5       29.91S

$$
MOZ051-052-059>065-011200-
...EAST CENTRAL MISSOURI...

CITY           SKY/WX    TMP DP  RH WIND       PRES   REMARKS
ST LOUIS INTL  PTCLDY    59  55  87 S5        29.87R
SPIRIT OF STL  PTCLDY    54  54 100 CALM      29.86R FOG
ST CHARLES     PTCLDY    54  54 100 CALM      29.86R FOG

$$
MOZ072>076-082>087-097>100-106>115-011200-
...SOUTH CENTRAL AND SOUTHEAST MISSOURI...

CITY           SKY/WX    TMP DP  RH WIND       PRES   REMARKS
CAPE GIRARDEAU PTCLDY    62  61  96 SE5       29.86R
FARMINGTON     FOG       60  59  96 VRB3      29.88R VSB 1/4
POPLAR BLUFF   CLEAR     60  59  96 S3        29.87R
WEST PLAINS    CLEAR     52  50  93 NW3       29.90S

$$



USA.gov is the U.S. government's official web portal to all federal, state and local government web resources and services.